EW7239 Weather Reports


time (UTC)temp
C
wind
direction
speed
KPH
gust
KPH
rain 1hr
cm
rain 24hr
cm
rain mn
cm
humidity
%
barometer
mb
20260505122017 12 226 6.4 9.7 0.05 0.38 0.38 84 1013.5
20260505121746 12 225 6.4 11.3 0.05 0.38 0.38 84 1013.5
20260505121016 12 225 6.4 11.3 0.08 0.38 0.38 85 1013.6
20260505120748 12 225 4.8 9.7 0.10 0.38 0.38 85 1013.6
20260505115518 12 225 4.8 9.7 0.18 0.38 0.38 85 1013.6
20260505115249 12 225 4.8 9.7 0.25 0.38 0.38 85 1013.6
20260505114517 12 225 4.8 8.0 0.28 0.38 0.38 85 1013.6
20260505114016 12 225 4.8 9.7 0.30 0.36 0.36 85 1013.7
20260505113517 12 225 4.8 9.7 0.30 0.36 0.36 86 1013.7
20260505113243 12 225 4.8 8.0 0.30 0.36 0.36 86 1013.7
20260505112511 12 225 3.2 8.0 0.33 0.36 0.36 86 1013.7
20260505112238 12 225 1.6 4.8 0.30 0.33 0.33 86 1013.7
20260505111507 12 225 1.6 6.4 0.30 0.33 0.33 86 1013.7
20260505111007 12 225 3.2 6.4 0.28 0.30 0.30 86 1013.8
20260505110505 12 225 3.2 6.4 0.25 0.28 0.28 86 1013.7
20260505101951 12 225 3.2 8.0 0.03 0.03 0.03 86 1013.7
20260505101449 12 225 3.2 8.0 0.03 0.03 0.03 85 1013.7
20260505100948 12 225 3.2 9.7 0.03 0.03 0.03 85 1013.8
20260505100448 12 225 3.2 9.7 0.03 0.03 0.03 85 1013.8
20260505095944 12 225 1.6 6.4 0.03 0.03 0.03 85 1013.9
20260505095445 13 225 1.6 6.4 0.00 0.00 0.00 85 1013.8
20260505094941 13 225 3.2 8.0 0.00 0.00 0.00 84 1013.8
20260505094441 13 225 4.8 12.9 0.00 0.00 0.00 84 1013.9
20260505093941 13 225 4.8 12.9 0.00 0.00 0.00 84 1013.9
20260505093436 13 225 3.2 8.0 0.00 0.00 0.00 84 1013.9
20260505092938 13 225 1.6 8.0 0.00 0.00 0.00 84 1013.9
20260505092435 13 225 0.0 0.0 0.00 0.00 0.00 85 1014.0
20260505091936 12 225 0.0 0.0 0.00 0.00 0.00 84 1014.0
20260505091706 12 225 0.0 0.0 0.00 0.00 0.00 85 1014.1
20260505090936 12 225 0.0 0.0 0.00 0.00 0.00 85 1014.1
20260505090435 12 225 0.0 0.0 0.00 0.00 0.00 85 1014.2
20260505085936 12 225 0.0 0.0 0.00 0.00 0.00 85 1014.2
20260505085434 13 225 0.0 0.0 0.00 0.00 0.00 85 1014.3
20260505084935 13 225 0.0 0.0 0.00 0.00 0.00 85 1014.4
20260505084433 13 225 0.0 0.0 0.00 0.00 0.00 85 1014.3
20260505083930 13 225 0.0 3.2 0.00 0.00 0.00 85 1014.4
20260505083431 13 225 1.6 4.8 0.00 0.00 0.00 85 1014.4
20260505082926 13 225 1.6 4.8 0.00 0.00 0.00 85 1014.4
20260505082424 13 225 1.6 4.8 0.00 0.00 0.00 85 1014.5
20260505081422 13 225 1.6 4.8 0.00 0.00 0.00 84 1014.6
20260505080921 13 225 1.6 4.8 0.00 0.00 0.00 84 1014.6
20260505080419 13 225 1.6 4.8 0.00 0.00 0.00 84 1014.7
20260505075919 12 225 1.6 4.8 0.00 0.00 0.00 84 1014.8
20260505075420 13 225 3.2 9.7 0.00 0.00 0.00 84 1014.8
20260505074919 13 225 3.2 9.7 0.00 0.00 0.00 84 1014.8
20260505074417 13 225 3.2 9.7 0.00 0.00 0.00 83 1014.8
20260505073916 13 225 1.6 4.8 0.00 0.00 0.00 83 1014.8
20260505073648 13 225 1.6 6.4 0.00 0.00 0.00 83 1014.8
20260505072917 13 225 3.2 8.0 0.00 0.00 0.00 82 1014.9
20260505072649 13 225 3.2 8.0 0.00 0.00 0.00 81 1014.9
20260505071918 13 225 3.2 8.0 0.00 0.00 0.00 80 1014.9
20260505071417 13 225 4.8 9.7 0.00 0.00 0.00 80 1015.0
20260505070910 13 225 4.8 9.7 0.00 0.00 0.00 79 1014.9
20260505070408 13 225 4.8 9.7 0.00 0.00 0.00 79 1015.0
20260505065906 14 225 4.8 9.7 0.00 0.00 0.00 78 1014.9
20260505065406 14 225 6.4 11.3 0.00 0.00 0.00 78 1014.9
20260505064906 14 225 6.4 11.3 0.00 0.00 0.00 77 1015.0
20260505064405 14 226 6.4 11.3 0.00 0.00 0.00 77 1015.0
20260505063903 14 226 6.4 11.3 0.00 0.00 0.00 77 1015.0
20260505063405 14 226 6.4 14.5 0.00 0.00 0.00 77 1015.0
20260505062904 14 226 6.4 14.5 0.00 0.00 0.00 77 1015.0
20260505062404 14 226 8.0 14.5 0.00 0.00 0.00 76 1015.0
20260505061900 14 225 8.0 14.5 0.00 0.00 0.00 76 1014.9
20260505061359 14 229 8.0 14.5 0.00 0.00 0.00 76 1015.0
20260505060900 14 227 6.4 12.9 0.00 0.00 0.00 76 1015.0
20260505060356 14 227 6.4 14.5 0.00 0.00 0.00 76 1015.1
20260505055857 14 226 6.4 14.5 0.00 0.00 0.00 77 1015.0
20260505055355 14 227 8.0 14.5 0.00 0.00 0.00 76 1015.1
20260505054855 14 228 9.7 16.1 0.00 0.00 0.00 76 1015.1
20260505054355 14 225 8.0 16.1 0.00 0.00 0.00 76 1015.1
20260505053855 14 220 8.0 14.5 0.00 0.00 0.00 76 1015.2
20260505053354 14 220 8.0 14.5 0.00 0.00 0.00 76 1015.2
20260505052855 14 219 8.0 14.5 0.00 0.00 0.00 76 1015.3
20260505052353 14 219 8.0 16.1 0.00 0.00 0.00 77 1015.3
20260505051853 14 220 9.7 16.1 0.00 0.00 0.00 76 1015.3
20260505051352 14 223 8.0 16.1 0.00 0.00 0.00 76 1015.3
20260505050855 14 217 8.0 14.5 0.00 0.00 0.00 77 1015.4
20260505050352 14 216 9.7 17.7 0.00 0.00 0.00 76 1015.4
20260505050123 14 223 9.7 17.7 0.00 0.00 0.00 76 1015.3
20260505041119 15 221 11.3 19.3 0.00 0.00 0.00 74 1015.1
20260505040348 15 211 9.7 19.3 0.00 0.00 0.00 73 1015.2
20260505035847 15 224 8.0 17.7 0.00 0.00 0.00 72 1015.1
20260505035619 15 220 8.0 17.7 0.00 0.00 0.00 72 1015.0
20260505034849 15 225 9.7 20.9 0.00 0.00 0.00 71 1015.0
20260505034348 15 224 11.3 20.9 0.00 0.00 0.00 70 1014.9
20260505034116 15 228 9.7 20.9 0.00 0.00 0.00 69 1014.9
20260505033346 15 219 9.7 17.7 0.00 0.00 0.00 69 1014.9
20260505032841 15 223 11.3 20.9 0.00 0.00 0.00 69 1014.9
20260505032341 15 223 12.9 20.9 0.00 0.00 0.00 68 1014.8
20260505031841 15 224 11.3 20.9 0.00 0.00 0.00 67 1014.7
20260505031107 15 224 9.7 20.9 0.00 0.00 0.00 66 1014.8
20260505030337 15 223 11.3 19.3 0.00 0.00 0.00 66 1014.7
20260505025839 15 213 12.9 20.9 0.00 0.00 0.00 65 1014.7
20260505025337 15 213 12.9 20.9 0.00 0.00 0.00 64 1014.7
20260505025109 15 217 12.9 20.9 0.00 0.00 0.00 64 1014.7
20260505024609 15 221 12.9 20.9 0.00 0.00 0.00 64 1014.6
20260505023838 16 223 12.9 20.9 0.00 0.00 0.00 64 1014.7
20260505023338 16 207 12.9 25.7 0.00 0.00 0.00 64 1014.6
20260505022837 16 220 12.9 25.7 0.00 0.00 0.00 63 1014.6
20260505022609 16 229 12.9 25.7 0.00 0.00 0.00 63 1014.5
20260505021837 16 223 12.9 25.7 0.00 0.00 0.00 62 1014.5
20260505021337 16 204 12.9 24.1 0.00 0.00 0.00 62 1014.5
20260505020836 16 229 12.9 24.1 0.00 0.00 0.00 62 1014.5
20260505020331 16 227 11.3 20.9 0.00 0.00 0.00 61 1014.5
20260505015831 16 214 12.9 20.9 0.00 0.00 0.00 61 1014.4
20260505015332 16 207 12.9 20.9 0.00 0.00 0.00 61 1014.4
20260505015101 16 223 12.9 19.3 0.00 0.00 0.00 60 1014.4
20260505014329 16 202 12.9 19.3 0.00 0.00 0.00 60 1014.4
20260505013830 17 207 14.5 25.7 0.00 0.00 0.00 59 1014.4
20260505013325 17 223 14.5 25.7 0.00 0.00 0.00 57 1014.5
20260505012824 17 220 14.5 27.4 0.00 0.00 0.00 57 1014.5
20260505012324 17 217 14.5 27.4 0.00 0.00 0.00 55 1014.5
20260505012055 17 234 14.5 22.5 0.00 0.00 0.00 56 1014.5
20260505011051 17 223 14.5 25.7 0.00 0.00 0.00 56 1014.5
20260505010320 17 218 14.5 25.7 0.00 0.00 0.00 56 1014.6
20260505005817 17 184 16.1 24.1 0.00 0.00 0.00 56 1014.6
20260505005317 17 222 14.5 25.7 0.00 0.00 0.00 56 1014.5
20260505004817 17 211 14.5 27.4 0.00 0.00 0.00 56 1014.7
20260505004317 17 214 14.5 27.4 0.00 0.00 0.00 55 1014.6
20260505003818 17 210 12.9 24.1 0.00 0.00 0.00 56 1014.7
20260505003550 17 205 12.9 24.1 0.00 0.00 0.00 56 1014.6
20260505002818 17 215 12.9 24.1 0.00 0.00 0.00 56 1014.6
20260505002317 17 212 11.3 20.9 0.00 0.00 0.00 56 1014.7
20260505001817 18 193 12.9 24.1 0.00 0.00 0.00 56 1014.7
20260505001317 17 220 14.5 27.4 0.00 0.00 0.00 56 1014.7
20260505000817 17 231 14.5 32.2 0.00 0.00 0.00 55 1014.6
20260505000318 17 218 14.5 32.2 0.00 0.00 0.00 55 1014.6
20260504235818 18 234 14.5 30.6 0.00 0.00 0.00 55 1014.6
20260504235316 18 204 12.9 24.1 0.00 0.00 0.00 54 1014.5
20260504234815 18 203 12.9 24.1 0.00 0.00 0.00 53 1014.5
20260504234316 18 208 12.9 22.5 0.00 0.00 0.00 53 1014.4
20260504233809 18 205 14.5 27.4 0.00 0.00 0.00 54 1014.3
20260504233310 18 212 14.5 27.4 0.00 0.00 0.00 53 1014.2
20260504232810 18 232 14.5 29.0 0.00 0.00 0.00 53 1014.2
20260504232310 18 228 14.5 29.0 0.00 0.00 0.00 53 1014.3
20260504231807 18 224 16.1 38.6 0.00 0.00 0.00 52 1014.3
20260504231307 19 221 16.1 38.6 0.00 0.00 0.00 53 1014.1
20260504230533 19 218 12.9 24.1 0.00 0.00 0.00 53 1014.2
20260504225759 19 223 12.9 22.5 0.00 0.00 0.00 54 1014.2
20260504225531 19 221 12.9 25.7 0.00 0.00 0.00 54 1014.3
20260504224800 19 229 14.5 29.0 0.00 0.00 0.00 54 1014.3
20260504224532 18 209 14.5 29.0 0.00 0.00 0.00 54 1014.4
20260504223800 18 207 11.3 24.1 0.00 0.00 0.00 53 1014.4
20260504223300 19 235 9.7 17.7 0.00 0.00 0.00 52 1014.4
20260504222759 18 229 11.3 17.7 0.00 0.00 0.00 52 1014.5
20260504222300 19 211 11.3 17.7 0.00 0.00 0.00 50 1014.6
20260504222028 19 215 11.3 20.9 0.00 0.00 0.00 49 1014.6
20260504221256 19 235 11.3 20.9 0.00 0.00 0.00 50 1014.6
20260504220756 19 219 11.3 17.7 0.00 0.00 0.00 49 1014.7
20260504220253 19 221 9.7 17.7 0.00 0.00 0.00 49 1014.7
20260504215754 19 217 8.0 17.7 0.00 0.00 0.00 50 1014.8
20260504215254 19 209 9.7 19.3 0.00 0.00 0.00 49 1014.8
20260504214747 19 222 9.7 19.3 0.00 0.00 0.00 49 1014.9
20260504214248 19 252 9.7 19.3 0.00 0.00 0.00 49 1014.9
20260504213747 20 221 12.9 24.1 0.00 0.00 0.00 48 1015.1
20260504213248 20 238 11.3 24.1 0.00 0.00 0.00 49 1015.1
20260504212748 19 216 9.7 24.1 0.00 0.00 0.00 50 1015.2
20260504212241 19 239 9.7 24.1 0.00 0.00 0.00 50 1015.3
20260504211743 19 210 8.0 17.7 0.00 0.00 0.00 51 1015.3
20260504211241 19 215 8.0 17.7 0.00 0.00 0.00 51 1015.3
20260504210742 19 210 9.7 24.1 0.00 0.00 0.00 51 1015.3
20260504210242 19 193 11.3 24.1 0.00 0.00 0.00 50 1015.3
20260504205738 19 190 9.7 22.5 0.00 0.00 0.00 49 1015.2
20260504205237 20 194 9.7 20.9 0.00 0.00 0.00 48 1015.3
20260504204737 20 229 11.3 20.9 0.00 0.00 0.00 48 1015.5
20260504204237 20 209 11.3 19.3 0.00 0.00 0.00 50 1015.4
20260504203737 19 205 11.3 19.3 0.00 0.00 0.00 49 1015.5
20260504203238 19 215 11.3 22.5 0.00 0.00 0.00 52 1015.5
20260504202735 18 179 12.9 22.5 0.00 0.00 0.00 51 1015.7
20260504202507 18 223 12.9 22.5 0.00 0.00 0.00 51 1015.8
20260504201736 18 211 12.9 22.5 0.00 0.00 0.00 50 1015.8
20260504201234 18 180 11.3 25.7 0.00 0.00 0.00 50 1015.7
20260504200731 18 200 12.9 25.7 0.00 0.00 0.00 49 1015.6
20260504200232 18 205 12.9 24.1 0.00 0.00 0.00 48 1015.8
20260504195728 18 243 12.9 22.5 0.00 0.00 0.00 47 1015.8
20260504195459 19 232 11.3 22.5 0.00 0.00 0.00 46 1015.8
20260504194727 19 168 9.7 20.9 0.00 0.00 0.00 46 1015.8
20260504194227 19 222 9.7 19.3 0.00 0.00 0.00 46 1015.7
20260504193727 18 225 9.7 16.1 0.00 0.00 0.00 48 1015.8
20260504193225 18 220 9.7 16.1 0.00 0.00 0.00 49 1016.0
20260504192957 19 222 8.0 16.1 0.00 0.00 0.00 48 1015.9
20260504192224 19 221 11.3 22.5 0.00 0.00 0.00 49 1015.8
20260504191723 19 211 11.3 22.5 0.00 0.00 0.00 48 1015.8
20260504191223 19 228 9.7 20.9 0.00 0.00 0.00 50 1015.8
20260504190725 19 212 8.0 19.3 0.00 0.00 0.00 50 1015.9
20260504190223 18 236 9.7 19.3 0.00 0.00 0.00 51 1015.9
20260504185723 18 242 11.3 19.3 0.00 0.00 0.00 50 1015.9
20260504185456 19 218 11.3 22.5 0.00 0.00 0.00 49 1015.8
20260504184954 19 217 11.3 22.5 0.00 0.00 0.00 50 1015.9
20260504184224 19 222 9.7 20.9 0.00 0.00 0.00 49 1016.0
20260504183719 18 217 8.0 17.7 0.00 0.00 0.00 51 1015.9
20260504183220 18 209 8.0 17.7 0.00 0.00 0.00 52 1015.8
20260504182718 18 221 9.7 17.7 0.00 0.00 0.00 51 1016.0
20260504182218 18 227 8.0 14.5 0.00 0.00 0.00 52 1015.9
20260504181718 18 255 9.7 19.3 0.00 0.00 0.00 52 1016.1
20260504181216 18 225 9.7 19.3 0.00 0.00 0.00 52 1016.2
20260504180948 18 223 8.0 19.3 0.00 0.00 0.00 53 1016.0
20260504180218 18 231 8.0 19.3 0.00 0.00 0.00 54 1016.0
20260504175715 18 212 8.0 19.3 0.00 0.00 0.00 55 1016.0
20260504175215 17 220 8.0 19.3 0.00 0.00 0.00 56 1016.0
20260504174947 17 209 9.7 19.3 0.00 0.00 0.00 58 1016.1
20260504174216 17 205 11.3 20.9 0.00 0.00 0.00 58 1016.1
20260504173715 17 232 9.7 20.9 0.00 0.00 0.00 59 1016.1
20260504173216 17 207 8.0 16.1 0.00 0.00 0.00 59 1016.0
20260504172716 17 224 8.0 17.7 0.00 0.00 0.00 60 1016.0
20260504172216 17 224 9.7 17.7 0.00 0.00 0.00 60 1015.9
20260504171944 17 229 8.0 16.1 0.00 0.00 0.00 60 1015.8
20260504171208 17 222 6.4 12.9 0.00 0.00 0.00 60 1015.9
20260504170709 17 205 6.4 14.5 0.00 0.00 0.00 61 1016.0
20260504170209 16 222 8.0 17.7 0.00 0.00 0.00 62 1015.8
20260504160203 15 221 4.8 9.7 0.00 0.00 0.00 68 1015.7
20260504150657 13 227 4.8 8.0 0.00 0.00 0.00 76 1015.6
20260504150427 13 228 4.8 12.9 0.00 0.00 0.00 76 1015.5
20260504140648 13 232 3.2 11.3 0.00 0.00 0.00 79 1015.1
20260504140144 13 232 3.2 11.3 0.00 0.00 0.00 79 1015.3
20260504130635 12 232 3.2 9.7 0.00 0.00 0.00 79 1015.4
20260504130136 12 232 3.2 9.7 0.00 0.00 0.00 79 1015.3